Location: Burgberg
(50.1428°N, 11.0671°E)
Time: 20:38:18
(UTC+00:00)

IRS-1C Rocket - Pass Details

Date: 26 January 2020
Orbit: 801 x 805 km, 99.0° (Epoch: 25 February)

Event Time Altitude Azimuth Distance (km) Brightness Sun altitude
Rises 06:08:14 0° 14° (NNE) 3,328 7.2 -8.2°
Reaches altitude 10° 06:10:35 10° 13° (NNE) 2,394 6.5 -7.8°
Maximum altitude 06:15:51 76° 288° (WNW) 834 4.1 -7.0°
Drops below altitude 10° 06:21:06 10° 204° (SSW) 2,379 6.5 -6.2°
Sets 06:23:26 0° 203° (SSW) 3,306 7.3 -5.9°
